Location: Caltech
(34.1382°N, 118.1253°W)
Time: 03:54:00
(UTC-08:00)

Daily predictions for brighter satellites

Satellite Brightness Start Highest point End
(mag) Time Altitude Azimuth Time Altitude Azimuth Time Altitude Azimuth
SL-16 R/B 4.3 03:39:13 21° ENE 03:39:13 21° ENE 03:42:57 10° ESE
USA 229 DEB 4.4 04:00:49 50° NE 04:01:30 51° NE 04:08:30 10° SE
USA 229 4.4 04:00:52 49° NE 04:01:35 51° NE 04:08:35 10° SE
DELTA 2 R/B (1) 3.4 04:45:41 77° SSW 04:45:58 81° SSE 04:51:33 10° ENE
COSMO-SKYMED 1 3.7 04:46:20 10° SE 04:50:24 42° ENE 04:53:20 18° N
DMSP 5D-2 F-14 4.5 04:47:34 10° N 04:52:59 78° WNW 04:58:24 10° SSW
Cosmos 304 Rocket 3.6 05:00:38 64° NNW 05:01:22 84° WSW 05:06:08 10° SSE
GPS 2-05 Rocket1 4.0 05:03:05 36° ENE 05:03:05 36° ENE 05:05:13 10° E
Ariane Rocket 3.8 05:00:58 10° NNE 05:05:57 51° E 05:10:53 10° S
Cosmos 1500 Rocket 3.4 05:05:53 57° NNW 05:06:45 79° W 05:11:12 10° S
Cosmos 1328 3.7 05:06:42 64° N 05:07:16 87° E 05:11:16 10° S
Cosmos 2233 Rocket 4.0 05:01:35 10° SSW 05:07:42 58° W 05:13:53 10° N
CZ-3 R/B 4.4 05:03:21 23° WSW 05:08:24 26° WSW 05:16:38 10° S
Cosmos 2227 4.0 05:03:58 10° SSW 05:09:34 84° WNW 05:15:13 10° NNE
ISS -3.2 05:14:39 70° E 05:14:39 70° E 05:17:38 10° SE
Cosmos 2237 Rocket 4.1 05:19:57 13° SW 05:19:57 13° SW 05:20:56 10° SW
OAO 2 Rocket 3.2 05:17:32 47° W 05:18:57 82° SSW 05:23:52 10° ESE
SKYMED 3 4.4 05:16:03 10° S 05:20:23 82° WSW 05:23:44 17° NNW
SL-16 R/B 2.4 05:21:11 35° WNW 05:22:58 46° WSW 05:28:20 10° S
ATLAS 2A CENTAUR R/B 3.6 05:21:30 23° SW 05:22:59 28° SSW 05:25:16 10° SE
Thor Agena Rocket 4.2 05:18:23 10° SSW 05:23:06 34° W 05:23:06 34° W
Cosmos 968 Rocket 4.4 05:27:04 29° NW 05:27:04 29° NW 05:30:49 10° N
Cosmos 2346 Rocket 4.5 05:22:38 10° NNW 05:28:33 54° W 05:34:24 10° SSW
ATLAS 3B CENTAUR R/B 4.3 05:24:12 10° SW 05:29:39 39° SSE 05:43:20 10° E
Cosmos 1703 4.3 05:26:54 10° N 05:30:41 46° E 05:34:29 10° SSE
Cosmos 2034 Rocket 4.3 05:25:42 10° S 05:31:48 69° E 05:38:01 10° NNE
Meteor 1-28 Rocket 3.1 05:28:32 10° SSE 05:32:18 86° ENE 05:36:03 10° N
PSLV R/B 4.4 05:34:15 28° NNW 05:34:31 29° N 05:37:31 10° NE
Cosmos 1271 Rocket 3.0 05:31:55 10° SSW 05:35:32 40° W 05:39:08 10° N
SKYMED 2 3.8 05:34:15 10° S 05:38:27 48° W 05:41:58 14° NNW
Cosmos 1626 3.4 05:35:06 10° N 05:38:40 42° E 05:42:12 10° SSE
Gbstr 26 Del rocket 3.9 05:36:13 10° SW 05:41:16 71° SE 05:47:38 10° NE
Cosmos 2058 2.8 05:37:37 10° NNW 05:41:43 64° W 05:45:48 10° S
Cosmos 773 Rocket 3.9 05:38:24 10° NNW 05:43:42 80° WSW 05:48:59 10° SSE
Cosmos 1513 Rocket 4.4 05:39:42 10° S 05:45:58 79° W 05:52:21 10° N
YAOGAN 1 4.4 05:43:11 10° NNE 05:47:09 34° E 05:51:05 10° SSE
Cosmos 1184 Rocket 4.0 05:44:09 10° N 05:47:19 43° E 05:50:30 10° SSE
Cosmos 2221 2.7 05:45:57 10° SSW 05:50:06 45° W 05:54:16 10° N
Cosmos 1340 Rocket 2.9 05:46:29 10° NNW 05:50:18 49° W 05:54:08 10° S
Meteor 2-12 Rocket 4.5 05:46:05 10° SSW 05:52:06 57° W 05:58:10 10° N
Meteor 1-11 4.5 05:48:28 10° NNW 05:54:02 49° W 05:59:35 10° SSW
SL-14 R/B 4.2 05:52:38 15° NW 05:55:11 29° W 05:58:41 10° SSW
Cosmos 292 Rocket 3.9 05:52:35 10° NNW 05:57:23 80° ENE 06:02:11 10° SSE
Cosmos 1666 Rocket 3.9 05:53:51 10° N 05:58:19 71° E 06:02:46 10° SSE
Tiangong 2 1.4 05:57:48 21° W 05:59:35 47° NNW 06:02:38 10° NE
Cosmos 1464 Rocket 4.2 05:55:14 10° SSW 06:01:18 48° W 06:07:22 10° N
Helios 1B rocket 4.3 06:00:15 10° SE 06:03:54 32° ENE 06:07:34 10° N
Cosmos 1943 3.8 05:58:28 10° NNW 06:04:07 59° ENE 06:09:42 10° SSE
Cosmos 1356 Rocket 3.3 06:00:22 10° NNW 06:04:29 70° W 06:08:39 10° S
APEX 3.4 06:00:57 10° SSW 06:05:13 71° ESE 06:08:35 10° NNE
NOSS 3-1 (A) 4.1 05:58:30 10° NNW 06:06:22 78° WSW 06:14:50 10° SSE
SMAP 3.4 06:01:51 10° NNE 06:06:31 71° ESE 06:11:08 10° S
ERBS 3.0 06:06:37 15° WNW 06:09:04 38° SW 06:12:16 10° SSE
Cosmos 2344 3.6 06:04:28 10° SSW 06:12:12 81° WNW 06:20:31 10° NNE
ATLAS 2AS CENTAUR R/B 4.2 06:07:32 10° NNW 06:14:58 39° NE 06:21:54 10° ESE
Cosmos 2151 4.4 06:13:08 10° NW 06:15:57 18° W 06:18:47 10° SW
CSL-04 Debris 4.5 06:12:47 10° N 06:17:58 45° WNW 06:23:07 10° SW
Cosmos 1908 3.3 06:18:42 10° SSW 06:22:24 50° W 06:26:08 10° N
SPOT 3 Rocket 3.7 06:17:31 10° NNE 06:22:46 83° ESE 06:27:59 10° SSW
Cosmos 2263 Rocket 2.2 06:17:33 10° SSW 06:23:10 66° WNW 06:28:50 10° NNE
DELTA 2 R/B(2) 3.4 06:23:07 10° W 06:24:58 60° NNW 06:27:54 10° ENE
COSMO-SKYMED 1 4.4 06:24:41 10° WSW 06:26:43 13° W 06:28:45 10° WNW
Cosmos 1603 4.3 06:22:04 10° NW 06:27:10 36° WSW 06:32:17 10° S
USA 234 4.1 06:20:59 10° ESE 06:27:12 48° NE 06:33:26 10° NNW
SJ-12 4.2 06:24:08 10° N 06:28:01 44° WNW 06:31:52 10° SSW
Cosmos 1470 Rocket 4.1 06:26:38 10° N 06:30:56 64° E 06:35:14 10° SSE
DELTA 2 R/B (1) 3.9 06:27:16 10° W 06:32:40 51° N 06:38:06 10° ENE
